This demonstration page uses our WeatherBlox Daily Observations layout. Learn more.

Left ArrowRight Arrow

Hourly Observations for June 14, 2021

Temp ( °F °C ) Dew Point ( °F °C ) Humidity (%) Winds ( mph kmh ) Pressure ( in mb ) Visibility ( mi km ) Precip ( " mm )
12:15 am 00:15 Clear 68 20 53 11.8 59 59 N N/A 30.02 1016 10 16 N/A
12:35 am 00:35 Clear 67 19.5 54 12.2 63 63 SE 3 6 30.01 1016 10 16 N/A
12:55 am 00:55 Clear 69 20.5 54 12.2 59 59 SSE 3 6 30.00 1016 10 16 N/A
1:15 am 01:15 Clear 68 20 55 12.5 62 62 S 3 6 30.02 1016 10 16 N/A
1:35 am 01:35 Clear 68 20 55 12.5 62 62 SSE 5 7 30.01 1016 10 16 N/A
1:55 am 01:55 Clear 68 19.9 55 12.5 63 63 S 3 6 30.01 1016 10 16 N/A
2:15 am 02:15 Clear 70 20.9 55 12.5 59 59 S 3 6 30.00 1016 10 16 N/A
2:35 am 02:35 Clear 70 21 55 12.7 59 59 SSW 5 7 30.01 1016 10 16 N/A
2:55 am 02:55 Clear 69 20.6 55 13 62 62 N N/A 30.01 1016 10 16 N/A
3:15 am 03:15 Clear 68 20 56 13.4 66 66 N N/A 30.03 1017 10 16 N/A
3:35 am 03:35 Partly Cloudy 71 21.4 57 13.7 62 62 NNW 13 20 30.07 1018 10 16 N/A
3:55 am 03:55 Cloudy 76 24.5 55 12.9 48 48 NNW 5 7 30.04 1017 10 16 N/A
4:15 am 04:15 Mostly Cloudy with Heavy Rain 73 22.6 58 14.6 61 61 NNW 9 15 30.08 1018 10 16 0.02 0.51
4:35 am 04:35 Mostly Cloudy with Light Rain 70 20.9 60 15.6 72 72 WNW 7 11 30.07 1018 10 16 0.03 0.76
4:55 am 04:55 Mostly Cloudy with Drizzle 69 20.5 61 16.3 77 77 N N/A 30.07 1018 10 16 0.03 0.76
5:15 am 05:15 Partly Cloudy with Light Rain 70 21.1 61 16.3 74 74 SSW 8 13 30.07 1018 10 16 N/A
5:35 am 05:35 Cloudy with Rain 75 23.9 55 13 51 51 N N/A 29.99 1015 10 16 0.01 0.25
5:55 am 05:55 Partly Cloudy 74 23.5 57 13.7 54 54 SE 9 15 29.95 1014 10 16 0.01 0.25
6:15 am 06:15 Sunny 74 23.2 57 13.9 56 56 SSE 5 7 29.95 1014 10 16 N/A
6:35 am 06:35 Sunny 73 22.5 59 14.9 62 62 N N/A 29.95 1014 10 16 N/A
6:55 am 06:55 Sunny 71 21.9 59 15.1 65 65 SSE 5 7 29.94 1014 10 16 N/A
7:15 am 07:15 Sunny 72 22.3 59 15.1 64 64 SW 5 7 29.96 1014 10 16 N/A
7:35 am 07:35 Sunny 72 22.2 59 15.1 64 64 WNW 6 9 29.98 1015 10 16 N/A
7:55 am 07:55 Sunny 71 21.9 60 15.6 68 68 WSW 5 7 29.99 1016 10 16 N/A
8:15 am 08:15 Sunny 71 21.9 62 16.4 71 71 NW 12 19 30.03 1017 10 16 N/A
8:35 am 08:35 Sunny 71 21.7 62 16.7 73 73 NNE 7 11 30.05 1018 10 16 N/A
8:55 am 08:55 Sunny 74 23.6 62 16.5 65 65 N 6 9 30.03 1017 10 16 N/A
9:15 am 09:15 Sunny 76 24.5 62 16.6 62 62 N 3 6 30.02 1017 10 16 N/A
9:35 am 09:35 Sunny 78 25.7 59 15.1 52 52 NNE 3 6 30.01 1016 10 16 N/A
9:55 am 09:55 Sunny 80 26.8 59 14.9 48 48 N N/A 30.00 1016 10 16 N/A
10:15 am 10:15 Sunny 81 27.2 58 14.6 46 46 N N/A 30.00 1016 10 16 N/A
10:35 am 10:35 Sunny 82 27.7 60 15.7 48 48 N N/A 29.98 1015 10 16 N/A
10:55 am 10:55 Sunny 83 28.2 61 16 48 48 N N/A 29.98 1015 10 16 N/A
11:15 am 11:15 Sunny 84 28.8 63 17.2 50 50 SW 6 9 29.98 1015 10 16 N/A
11:35 am 11:35 Sunny 84 28.7 63 17.2 50 50 N N/A 29.98 1015 10 16 N/A
11:55 am 11:55 Sunny 85 29.6 64 17.8 49 49 SSE 3 6 29.97 1015 10 16 N/A
12:15 pm 12:15 Sunny 86 29.9 64 17.5 47 47 N N/A 29.97 1015 10 16 N/A
12:35 pm 12:35 Sunny 86 30.1 63 17.3 46 46 N N/A 29.96 1014 10 16 N/A
12:55 pm 12:55 Sunny 87 30.7 62 16.8 43 43 S 3 6 29.95 1014 10 16 N/A
1:15 pm 13:15 Sunny 89 31.5 63 17.3 43 43 S 3 6 29.94 1014 10 16 N/A
1:35 pm 13:35 Sunny 89 31.6 63 17.4 43 43 N N/A 29.92 1013 10 16 N/A
1:55 pm 13:55 Sunny 90 32 61 16.2 39 39 N N/A 29.92 1013 10 16 N/A
2:15 pm 14:15 Sunny 91 32.5 64 17.5 41 41 SSW 6 9 29.91 1013 10 16 N/A
2:35 pm 14:35 Sunny 91 32.5 63 17.2 40 40 N N/A 29.91 1013 10 16 N/A
2:55 pm 14:55 Sunny 91 32.7 64 17.6 41 41 N N/A 29.91 1013 10 16 N/A
3:15 pm 15:15 Sunny 91 32.9 63 17.1 39 39 SSW 5 7 29.89 1012 10 16 N/A
3:35 pm 15:35 Sunny 92 33.1 64 17.5 39 39 SW 7 11 29.89 1012 10 16 N/A
3:55 pm 15:55 Sunny 92 33.2 64 17.7 40 40 SSW 6 9 29.89 1012 10 16 N/A
4:15 pm 16:15 Sunny 93 33.8 63 17.2 37 37 S 8 13 29.88 1012 10 16 N/A
4:35 pm 16:35 Sunny 93 33.7 63 17 37 37 S 8 13 29.88 1012 10 16 N/A
4:55 pm 16:55 Sunny 93 33.9 64 17.6 38 38 SSW 8 13 29.87 1011 10 16 N/A
5:15 pm 17:15 Sunny 93 34 64 17.8 38 38 SSE 7 11 29.87 1011 10 16 N/A
5:35 pm 17:35 Partly Cloudy 93 34.1 62 16.7 35 35 SE 5 7 29.87 1011 10 16 N/A
5:55 pm 17:55 Partly Cloudy 93 34 63 17.2 37 37 SSE 5 7 29.86 1011 10 16 N/A
6:15 pm 18:15 Partly Cloudy 93 34.1 63 17.2 36 36 S 5 7 29.86 1011 10 16 N/A
6:35 pm 18:35 Partly Cloudy 92 33.6 62 16.5 36 36 S 7 11 29.86 1011 10 16 N/A
6:55 pm 18:55 Mostly Cloudy 93 33.8 61 16.1 35 35 S 5 7 29.86 1011 10 16 N/A
7:15 pm 19:15 Partly Cloudy 93 33.7 63 17 37 37 S 6 9 29.86 1011 10 16 N/A
7:35 pm 19:35 Sunny 91 33 64 17.5 40 40 SE 7 11 29.86 1011 10 16 N/A
7:55 pm 19:55 Sunny 91 32.5 66 18.8 44 44 SE 6 9 29.87 1011 10 16 N/A
8:15 pm 20:15 Sunny 89 31.9 67 19.4 48 48 SE 5 7 29.87 1012 10 16 N/A
8:35 pm 20:35 Sunny 88 31.1 67 19.6 50 50 SE 5 7 29.89 1012 10 16 N/A
8:55 pm 20:55 Sunny 86 30.2 67 19.5 53 53 SE 5 7 29.90 1012 10 16 N/A
9:15 pm 21:15 Clear 85 29.7 67 19.5 54 54 SSE 5 7 29.90 1013 10 16 N/A
9:35 pm 21:35 Clear 83 28.3 66 19.1 57 57 SSE 3 6 29.92 1013 10 16 N/A
9:55 pm 21:55 Clear 81 27 67 19.4 63 63 SE 3 6 29.94 1014 10 16 N/A
10:15 pm 22:15 Clear 81 27.1 67 19.3 62 62 SSE 5 7 29.94 1014 10 16 N/A
10:35 pm 22:35 Clear 81 27.1 66 19.1 62 62 SSE 6 9 29.95 1014 10 16 N/A
10:55 pm 22:55 Clear 80 26.5 66 19.1 64 64 SE 6 9 29.95 1014 10 16 N/A
11:15 pm 23:15 Clear 78 25.3 66 19 68 68 SE 6 9 29.96 1015 10 16 N/A
11:35 pm 23:35 Clear 76 24.3 67 19.2 73 73 SE 3 6 29.97 1015 10 16 N/A
11:55 pm 23:55 Clear 76 24.5 66 19 72 72 SE 6 9 29.97 1015 10 16 N/A

Powered by AerisWeather